logo
Search for airport 
image banner adimage banner adimage banner ad
image banner ad

VT57 - Malletts Head

Located in Colchester, United States

ICAO - VT57, IATA -

Data provided by Airmate  

General information

Coordinates: N44°33'38" W73°14'25"
Elevation is 95 feet MSL.
Magnetic variation is -15° East
View others Airports in Vermont

Operational data

Special qualification required
Current time UTC:
Current local time:
METAR: KBTV 241854Z 35016G24KT 3SM R15/4000VP6000FT -RA BR OVC008 17/16 A2963 RMK AO2 CIG 005V011 SLP031 P0000 T01720156
TAF: KBTV 241734Z 2418/2518 34015KT P6SM -SHRA SCT008 OVC013 TEMPO 2418/2421 33014G20KT 4SM -SHRA BKN008 OVC015 FM242100 35016G24KT P6SM VCSH OVC030 FM242200 34012KT P6SM VCSH OVC030 FM250000 16002KT P6SM BKN070 TEMPO 2504/2506 4SM BR SCT002 FM251100 20007KT P6SM FEW240
View NOTAMs / SUP AIP / TFR affecting this airport [VIEW]
Communications frequencies: [VIEW]

Runways:

RWY identifierQFULength (ft)Width (ft)SurfaceLDA (ft)
12W30002000WATER
30W30002000WATER

Airport contact information

Address: Colchester United States

Satellite view of VT57